QPF
0.00 0.00 0.00 0.00 0.00 0.00 0.01 0.01 0.01 0.02 0.03 0.02 0.01 0.01 0.01 0.01 0.02 0.01 0.01 0.02 0.02 0.01 0.01 0.01 0.02 0.02 0.02 0.02 0.02 0.03 0.03 0.04 0.03 0.04 0.05 0.04 0.04 0.05 0.05 0.05 0.06 0.06 0.07 0.08
0.00 0.00 0.00 0.01 0.01 0.00 0.01 0.01 0.00 0.01 0.02 0.02 0.03 0.02 0.01 0.02 0.02 0.02 0.02 0.01 0.01 0.01 0.01 0.01 0.01 0.02 0.02 0.02 0.02 0.03 0.04 0.04 0.04 0.04 0.05 0.04 0.04 0.04 0.04 0.04 0.04 0.05 0.06 0.06
0.00 0.01 0.01 0.01 0.00 0.00 0.01 0.00 0.00 0.02 0.03 0.02 0.02 0.04 0.05 0.08 0.04 0.02 0.01 0.01 0.00 0.01 0.00 0.01 0.01 0.02 0.01 0.01 0.01 0.02 0.03 0.04 0.04 0.04 0.05 0.04 0.05 0.04 0.04 0.04 0.04 0.04 0.04 0.05
0.01 0.00 0.01 0.00 0.00 0.00 0.00 0.01 0.00 0.01 0.04 0.02 0.03 0.06 0.10 0.09 0.03 0.01 0.01 0.01 0.00 0.01 0.01 0.01 0.01 0.01 0.01 0.01 0.01 0.02 0.02 0.04 0.05 0.05 0.05 0.06 0.06 0.06 0.05 0.04 0.04 0.03 0.04 0.05
0.01 0.00 0.00 0.00 0.00 0.00 0.00 0.01 0.00 0.00 0.03 0.03 0.04 0.04 0.05 0.06 0.03 0.01 0.00 0.00 0.01 0.01 0.01 0.01 0.01 0.01 0.01 0.02 0.02 0.01 0.01 0.02 0.03 0.05 0.05 0.05 0.05 0.05 0.05 0.04 0.04 0.04 0.05 0.05
0.00 0.00 0.00 0.00 0.00 0.00 0.00 0.00 0.00 0.00 0.02 0.03 0.03 0.03 0.03 0.03 0.01 0.00 0.00 0.00 0.00 0.01 0.01 0.01 0.01 0.01 0.01 0.01 0.01 0.02 0.02 0.01 0.01 0.03 0.04 0.05 0.04 0.04 0.04 0.04 0.04 0.05 0.05 0.05
0.02 0.02 0.01 0.00 0.00 0.00 0.00 0.01 0.02 0.02 0.04 0.03 0.02 0.03 0.02 0.01 0.01 0.04 0.02 0.01 0.01 0.01 0.01 0.01 0.01 0.01 0.01 0.01 0.01 0.01 0.01 0.01 0.01 0.02 0.04 0.04 0.04 0.03 0.03 0.03 0.03 0.03 0.04 0.04
0.03 0.04 0.01 0.00 0.00 0.00 0.00 0.01 0.02 0.03 0.04 0.04 0.04 0.04 0.03 0.02 0.01 0.02 0.01 0.00 0.01 0.01 0.01 0.02 0.02 0.02 0.01 0.01 0.01 0.01 0.01 0.01 0.01 0.03 0.03 0.04 0.03 0.03 0.02 0.02 0.02 0.03 0.03 0.03
0.01 0.02 0.00 0.00 0.00 0.00 0.02 0.01 0.02 0.04 0.03 0.03 0.03 0.05 0.07 0.04 0.01 0.00 0.01 0.01 0.01 0.01 0.01 0.02 0.01 0.02 0.02 0.02 0.01 0.01 0.01 0.00 0.01 0.01 0.02 0.03 0.03 0.02 0.02 0.01 0.01 0.01 0.02 0.02
0.00 0.01 0.00 0.00 0.00 0.00 0.01 0.01 0.02 0.05 0.03 0.03 0.02 0.03 0.04 0.01 0.00 0.01 0.01 0.00 0.00 0.01 0.01 0.01 0.01 0.01 0.01 0.01 0.01 0.01 0.01 0.00 0.00 0.00 0.01 0.02 0.02 0.02 0.03 0.02 0.01 0.01 0.01 0.01
0.00 0.00 0.00 0.01 0.00 0.00 0.01 0.01 0.01 0.02 0.02 0.03 0.02 0.03 0.03 0.01 0.00 0.00 0.00 0.00 0.01 0.01 0.01 0.02 0.01 0.01 0.01 0.01 0.01 0.01 0.01 0.01 0.00 0.00 0.00 0.01 0.01 0.03 0.03 0.03 0.02 0.01 0.01 0.01
0.00 0.00 0.00 0.01 0.00 0.00 0.00 0.00 0.01 0.02 0.03 0.03 0.03 0.03 0.01 0.02 0.02 0.01 0.03 0.01 0.03 0.02 0.01 0.02 0.01 0.02 0.02 0.01 0.01 0.02 0.02 0.01 0.01 0.01 0.01 0.01 0.01 0.03 0.03 0.02 0.02 0.02 0.01 0.01
0.01 0.01 0.02 0.02 0.01 0.01 0.00 0.00 0.00 0.01 0.02 0.02 0.03 0.03 0.02 0.02 0.03 0.02 0.02 0.01 0.00 0.01 0.01 0.01 0.01 0.01 0.00 0.01 0.01 0.02 0.02 0.02 0.02 0.02 0.02 0.02 0.03 0.03 0.03 0.02 0.02 0.02 0.02 0.02
0.00 0.01 0.01 0.03 0.02 0.02 0.01 0.00 0.00 0.01 0.02 0.02 0.03 0.04 0.04 0.03 0.01 0.01 0.01 0.01 0.01 0.01 0.01 0.01 0.01 0.01 0.01 0.01 0.02 0.01 0.01 0.01 0.01 0.01 0.02 0.02 0.03 0.03 0.03 0.03 0.02 0.02 0.02 0.02
0.01 0.01 0.00 0.00 0.01 0.01 0.02 0.02 0.01 0.01 0.00 0.02 0.03 0.03 0.03 0.02 0.01 0.01 0.01 0.00 0.00 0.01 0.00 0.01 0.02 0.02 0.02 0.01 0.02 0.01 0.01 0.01 0.02 0.01 0.02 0.02 0.03 0.03 0.04 0.03 0.03 0.02 0.02 0.03
0.02 0.01 0.01 0.00 0.00 0.01 0.01 0.02 0.02 0.02 0.02 0.03 0.03 0.03 0.03 0.02 0.02 0.01 0.00 0.00 0.00 0.00 0.01 0.01 0.02 0.03 0.02 0.02 0.02 0.01 0.01 0.02 0.02 0.03 0.02 0.03 0.03 0.04 0.04 0.04 0.04 0.04 0.03 0.03
0.01 0.02 0.02 0.01 0.00 0.01 0.02 0.02 0.02 0.03 0.03 0.05 0.05 0.04 0.03 0.02 0.03 0.01 0.00 0.00 0.00 0.01 0.01 0.01 0.02 0.03 0.02 0.02 0.01 0.01 0.01 0.01 0.02 0.04 0.05 0.04 0.03 0.04 0.05 0.04 0.05 0.05 0.05 0.05
0.02 0.02 0.03 0.02 0.02 0.03 0.02 0.01 0.01 0.02 0.02 0.02 0.03 0.02 0.02 0.01 0.02 0.02 0.01 0.01 0.01 0.01 0.01 0.01 0.02 0.03 0.02 0.02 0.02 0.01 0.01 0.01 0.01 0.03 0.05 0.06 0.05 0.04 0.06 0.06 0.05 0.05 0.05 0.05
0.01 0.03 0.04 0.05 0.04 0.02 0.01 0.01 0.02 0.02 0.03 0.01 0.02 0.02 0.02 0.02 0.01 0.02 0.01 0.02 0.01 0.01 0.02 0.02 0.03 0.04 0.05 0.03 0.03 0.02 0.02 0.02 0.01 0.02 0.02 0.03 0.06 0.05 0.06 0.05 0.04 0.05 0.05 0.05
0.02 0.03 0.06 0.07 0.05 0.02 0.02 0.04 0.04 0.04 0.05 0.01 0.01 0.01 0.02 0.05 0.07 0.04 0.02 0.02 0.02 0.01 0.01 0.02 0.04 0.06 0.07 0.06 0.05 0.04 0.05 0.04 0.02 0.02 0.02 0.02 0.03 0.05 0.04 0.04 0.04 0.04 0.04 0.03
0.04 0.05 0.06 0.07 0.05 0.03 0.03 0.04 0.04 0.06 0.07 0.02 0.01 0.01 0.02 0.05 0.06 0.03 0.01 0.01 0.03 0.02 0.01 0.02 0.03 0.05 0.05 0.04 0.04 0.05 0.09 0.10 0.06 0.05 0.04 0.03 0.03 0.04 0.05 0.05 0.04 0.03 0.03 0.03
0.04 0.04 0.04 0.05 0.05 0.04 0.02 0.02 0.04 0.05 0.03 0.01 0.01 0.01 0.02 0.02 0.01 0.01 0.00 0.01 0.02 0.02 0.01 0.01 0.03 0.04 0.03 0.03 0.03 0.04 0.07 0.15 0.14 0.09 0.05 0.04 0.04 0.04 0.04 0.04 0.03 0.03 0.03 0.02
0.03 0.04 0.04 0.04 0.05 0.04 0.01 0.02 0.02 0.01 0.01 0.01 0.01 0.01 0.01 0.01 0.01 0.01 0.01 0.02 0.02 0.02 0.02 0.02 0.03 0.04 0.03 0.03 0.03 0.04 0.05 0.06 0.09 0.14 0.12 0.07 0.04 0.04 0.05 0.05 0.04 0.03 0.03 0.03
0.04 0.02 0.03 0.04 0.03 0.02 0.01 0.01 0.01 0.01 0.01 0.01 0.01 0.01 0.01 0.01 0.01 0.02 0.02 0.02 0.03 0.02 0.02 0.03 0.05 0.06 0.04 0.03 0.03 0.02 0.03 0.04 0.05 0.06 0.07 0.07 0.05 0.04 0.04 0.04 0.04 0.04 0.03 0.03
0.04 0.02 0.02 0.03 0.03 0.02 0.01 0.01 0.01 0.01 0.01 0.00 0.00 0.01 0.01 0.01 0.01 0.01 0.01 0.02 0.02 0.03 0.03 0.05 0.06 0.08 0.06 0.05 0.04 0.03 0.02 0.03 0.04 0.04 0.05 0.05 0.04 0.03 0.03 0.03 0.03 0.03 0.03 0.03
0.03 0.04 0.04 0.05 0.04 0.03 0.01 0.01 0.01 0.01 0.01 0.00 0.00 0.01 0.01 0.01 0.01 0.01 0.02 0.02 0.02 0.03 0.04 0.06 0.07 0.08 0.07 0.06 0.05 0.03 0.02 0.03 0.05 0.05 0.05 0.06 0.04 0.03 0.03 0.03 0.03 0.02 0.02 0.02
MSLP
1004.48 1004.70 1004.74 1004.63 1004.45 1004.26 1004.10 1004.00 1003.95 1003.92 1003.84 1003.69 1003.42 1003.07 1002.65 1002.25 1001.95 1001.81 1001.90 1002.20 1002.69 1003.30 1003.93 1004.49 1004.89 1005.10 1005.12 1004.99 1004.78 1004.56 1004.42 1004.40 1004.52 1004.75 1005.06 1005.40 1005.69 1005.92 1006.05 1006.10 1006.12 1006.13 1006.19 1006.34
1004.65 1004.74 1004.69 1004.54 1004.37 1004.24 1004.20 1004.23 1004.31 1004.35 1004.30 1004.10 1003.72 1003.19 1002.57 1001.97 1001.49 1001.24 1001.29 1001.63 1002.23 1003.00 1003.83 1004.58 1005.17 1005.53 1005.66 1005.59 1005.40 1005.18 1005.02 1004.97 1005.04 1005.24 1005.51 1005.79 1006.02 1006.17 1006.22 1006.19 1006.11 1006.03 1006.02 1006.11
1004.63 1004.61 1004.49 1004.33 1004.22 1004.20 1004.30 1004.49 1004.70 1004.83 1004.80 1004.54 1004.04 1003.32 1002.48 1001.65 1000.98 1000.59 1000.56 1000.91 1001.58 1002.49 1003.49 1004.44 1005.22 1005.74 1006.00 1006.03 1005.91 1005.72 1005.56 1005.50 1005.55 1005.71 1005.94 1006.17 1006.35 1006.43 1006.41 1006.30 1006.15 1006.01 1005.94 1005.99
1004.42 1004.32 1004.16 1004.03 1004.00 1004.12 1004.38 1004.74 1005.09 1005.31 1005.31 1004.99 1004.36 1003.47 1002.42 1001.37 1000.50 999.95 999.82 1000.13 1000.85 1001.85 1002.99 1004.10 1005.05 1005.74 1006.15 1006.30 1006.27 1006.14 1006.02 1005.97 1006.02 1006.16 1006.36 1006.55 1006.68 1006.71 1006.64 1006.47 1006.26 1006.07 1005.96 1005.96
1004.09 1003.92 1003.76 1003.67 1003.75 1004.02 1004.44 1004.96 1005.45 1005.76 1005.78 1005.43 1004.71 1003.66 1002.43 1001.19 1000.13 999.43 999.18 999.43 1000.13 1001.17 1002.39 1003.62 1004.71 1005.55 1006.10 1006.38 1006.46 1006.42 1006.36 1006.35 1006.42 1006.56 1006.74 1006.91 1007.01 1007.00 1006.89 1006.68 1006.43 1006.19 1006.03 1005.99
1003.76 1003.56 1003.40 1003.37 1003.55 1003.93 1004.50 1005.15 1005.75 1006.14 1006.19 1005.83 1005.05 1003.91 1002.55 1001.17 999.96 999.12 998.75 998.91 999.55 1000.57 1001.81 1003.09 1004.26 1005.21 1005.88 1006.28 1006.48 1006.54 1006.57 1006.61 1006.72 1006.88 1007.06 1007.22 1007.30 1007.28 1007.13 1006.89 1006.60 1006.32 1006.11 1006.01
1003.59 1003.36 1003.21 1003.23 1003.47 1003.94 1004.59 1005.32 1005.98 1006.42 1006.51 1006.16 1005.36 1004.19 1002.78 1001.32 1000.03 999.08 998.61 998.65 999.20 1000.13 1001.32 1002.58 1003.77 1004.76 1005.51 1006.01 1006.31 1006.48 1006.59 1006.71 1006.88 1007.07 1007.28 1007.44 1007.52 1007.49 1007.32 1007.05 1006.73 1006.40 1006.13 1005.97
1003.70 1003.46 1003.32 1003.34 1003.59 1004.07 1004.73 1005.47 1006.14 1006.59 1006.70 1006.38 1005.61 1004.47 1003.09 1001.63 1000.32 999.32 998.76 998.70 999.12 999.92 1000.99 1002.15 1003.28 1004.26 1005.03 1005.58 1005.96 1006.22 1006.42 1006.62 1006.85 1007.10 1007.34 1007.52 1007.62 1007.58 1007.41 1007.13 1006.78 1006.41 1006.08 1005.85
1004.17 1003.93 1003.77 1003.76 1003.96 1004.37 1004.95 1005.61 1006.21 1006.63 1006.73 1006.44 1005.75 1004.70 1003.41 1002.05 1000.79 999.80 999.20 999.04 999.31 999.95 1000.84 1001.85 1002.85 1003.74 1004.47 1005.04 1005.46 1005.78 1006.05 1006.33 1006.63 1006.93 1007.22 1007.44 1007.56 1007.54 1007.38 1007.10 1006.73 1006.33 1005.96 1005.66
1004.99 1004.74 1004.54 1004.47 1004.56 1004.82 1005.24 1005.74 1006.20 1006.52 1006.59 1006.33 1005.73 1004.82 1003.70 1002.49 1001.36 1000.44 999.84 999.61 999.75 1000.20 1000.89 1001.70 1002.52 1003.27 1003.92 1004.44 1004.86 1005.21 1005.54 1005.87 1006.23 1006.58 1006.91 1007.18 1007.34 1007.36 1007.23 1006.97 1006.61 1006.20 1005.79 1005.44
1006.02 1005.78 1005.54 1005.36 1005.30 1005.37 1005.56 1005.83 1006.10 1006.27 1006.27 1006.03 1005.53 1004.79 1003.87 1002.88 1001.94 1001.15 1000.60 1000.34 1000.38 1000.66 1001.14 1001.73 1002.34 1002.92 1003.44 1003.87 1004.25 1004.60 1004.94 1005.31 1005.70 1006.09 1006.47 1006.77 1006.98 1007.05 1006.97 1006.76 1006.44 1006.05 1005.65 1005.28
1007.08 1006.85 1006.57 1006.29 1006.06 1005.91 1005.85 1005.86 1005.90 1005.90 1005.81 1005.58 1005.17 1004.61 1003.92 1003.18 1002.46 1001.85 1001.41 1001.17 1001.13 1001.28 1001.58 1001.95 1002.36 1002.75 1003.11 1003.43 1003.74 1004.04 1004.37 1004.73 1005.13 1005.54 1005.94 1006.27 1006.52 1006.65 1006.64 1006.50 1006.25 1005.92 1005.56 1005.20
1007.96 1007.76 1007.46 1007.10 1006.73 1006.38 1006.07 1005.83 1005.64 1005.46 1005.27 1005.03 1004.72 1004.32 1003.87 1003.38 1002.92 1002.51 1002.21 1002.03 1001.97 1002.03 1002.18 1002.37 1002.59 1002.80 1003.00 1003.20 1003.41 1003.64 1003.91 1004.23 1004.60 1005.00 1005.39 1005.74 1006.02 1006.21 1006.27 1006.22 1006.06 1005.82 1005.52 1005.20
1008.50 1008.35 1008.07 1007.67 1007.20 1006.69 1006.20 1005.75 1005.35 1005.02 1004.74 1004.49 1004.25 1004.01 1003.77 1003.53 1003.31 1003.13 1002.98 1002.90 1002.86 1002.87 1002.92 1002.97 1003.03 1003.09 1003.15 1003.21 1003.30 1003.44 1003.63 1003.88 1004.18 1004.52 1004.87 1005.21 1005.51 1005.73 1005.87 1005.90 1005.84 1005.70 1005.49 1005.23
1008.65 1008.56 1008.32 1007.94 1007.43 1006.85 1006.24 1005.65 1005.12 1004.68 1004.33 1004.08 1003.90 1003.79 1003.73 1003.71 1003.70 1003.71 1003.73 1003.75 1003.77 1003.77 1003.75 1003.72 1003.66 1003.59 1003.52 1003.46 1003.43 1003.45 1003.53 1003.68 1003.89 1004.14 1004.43 1004.72 1005.00 1005.25 1005.43 1005.54 1005.57 1005.52 1005.39 1005.20
1008.45 1008.43 1008.26 1007.93 1007.46 1006.88 1006.25 1005.61 1005.02 1004.52 1004.14 1003.89 1003.77 1003.76 1003.83 1003.97 1004.14 1004.31 1004.46 1004.58 1004.65 1004.66 1004.61 1004.51 1004.37 1004.21 1004.03 1003.86 1003.72 1003.63 1003.59 1003.62 1003.71 1003.86 1004.05 1004.28 1004.51 1004.75 1004.95 1005.11 1005.20 1005.22 1005.17 1005.03
1008.03 1008.08 1008.00 1007.76 1007.38 1006.89 1006.31 1005.70 1005.12 1004.63 1004.25 1004.02 1003.93 1003.97 1004.13 1004.37 1004.64 1004.91 1005.15 1005.33 1005.43 1005.45 1005.39 1005.25 1005.05 1004.81 1004.55 1004.30 1004.07 1003.87 1003.72 1003.63 1003.61 1003.64 1003.73 1003.87 1004.04 1004.24 1004.43 1004.60 1004.73 1004.80 1004.78 1004.67
1007.59 1007.68 1007.68 1007.56 1007.31 1006.94 1006.48 1005.97 1005.47 1005.02 1004.67 1004.46 1004.38 1004.44 1004.62 1004.88 1005.18 1005.48 1005.74 1005.93 1006.03 1006.04 1005.95 1005.77 1005.53 1005.24 1004.93 1004.62 1004.32 1004.04 1003.81 1003.63 1003.51 1003.44 1003.44 1003.50 1003.60 1003.74 1003.90 1004.06 1004.19 1004.26 1004.25 1004.16
1007.31 1007.41 1007.48 1007.47 1007.35 1007.13 1006.82 1006.44 1006.04 1005.66 1005.35 1005.14 1005.05 1005.08 1005.21 1005.43 1005.67 1005.92 1006.13 1006.28 1006.33 1006.30 1006.16 1005.95 1005.68 1005.36 1005.02 1004.67 1004.34 1004.03 1003.76 1003.53 1003.35 1003.23 1003.16 1003.15 1003.20 1003.29 1003.40 1003.53 1003.63 1003.68 1003.66 1003.56
1007.31 1007.39 1007.49 1007.56 1007.57 1007.48 1007.31 1007.06 1006.76 1006.44 1006.16 1005.94 1005.79 1005.74 1005.78 1005.87 1006.00 1006.14 1006.24 1006.28 1006.25 1006.13 1005.94 1005.69 1005.39 1005.05 1004.71 1004.37 1004.06 1003.76 1003.50 1003.28 1003.09 1002.96 1002.87 1002.83 1002.84 1002.90 1002.98 1003.06 1003.13 1003.16 1003.11 1002.98
1007.61 1007.66 1007.76 1007.87 1007.96 1007.97 1007.90 1007.74 1007.51 1007.23 1006.94 1006.67 1006.44 1006.26 1006.15 1006.08 1006.04 1006.01 1005.95 1005.86 1005.71 1005.51 1005.26 1004.96 1004.64 1004.32 1004.00 1003.71 1003.44 1003.21 1003.01 1002.85 1002.72 1002.62 1002.56 1002.53 1002.55 1002.59 1002.65 1002.70 1002.74 1002.74 1002.67 1002.53
1008.17 1008.16 1008.24 1008.36 1008.47 1008.53 1008.50 1008.38 1008.17 1007.87 1007.53 1007.17 1006.82 1006.49 1006.19 1005.93 1005.70 1005.48 1005.26 1005.02 1004.75 1004.46 1004.15 1003.83 1003.51 1003.22 1002.96 1002.74 1002.56 1002.43 1002.33 1002.27 1002.23 1002.21 1002.22 1002.24 1002.29 1002.34 1002.40 1002.44 1002.47 1002.45 1002.37 1002.23
1008.88 1008.81 1008.85 1008.93 1009.03 1009.07 1009.03 1008.89 1008.63 1008.27 1007.83 1007.34 1006.83 1006.33 1005.85 1005.40 1004.98 1004.58 1004.20 1003.83 1003.47 1003.11 1002.76 1002.44 1002.15 1001.91 1001.72 1001.60 1001.53 1001.51 1001.54 1001.59 1001.67 1001.75 1001.84 1001.94 1002.02 1002.11 1002.18 1002.24 1002.26 1002.24 1002.18 1002.06
1009.62 1009.51 1009.49 1009.52 1009.55 1009.53 1009.42 1009.19 1008.83 1008.36 1007.79 1007.15 1006.48 1005.80 1005.15 1004.52 1003.95 1003.41 1002.91 1002.45 1002.03 1001.64 1001.29 1001.00 1000.76 1000.59 1000.49 1000.46 1000.50 1000.60 1000.74 1000.90 1001.08 1001.26 1001.43 1001.58 1001.72 1001.83 1001.93 1002.00 1002.03 1002.03 1001.99 1001.91
1010.27 1010.14 1010.08 1010.05 1009.99 1009.87 1009.65 1009.29 1008.79 1008.18 1007.46 1006.66 1005.84 1005.01 1004.21 1003.46 1002.77 1002.15 1001.60 1001.11 1000.67 1000.30 999.99 999.75 999.58 999.48 999.47 999.52 999.65 999.83 1000.05 1000.28 1000.53 1000.76 1000.98 1001.17 1001.33 1001.47 1001.57 1001.65 1001.71 1001.73 1001.73 1001.70
1010.79 1010.67 1010.57 1010.47 1010.32 1010.08 1009.72 1009.22 1008.58 1007.81 1006.94 1006.01 1005.06 1004.12 1003.23 1002.42 1001.68 1001.04 1000.49 1000.02 999.63 999.32 999.08 998.91 998.81 998.79 998.84 998.95 999.12 999.33 999.57 999.83 1000.08 1000.31 1000.53 1000.71 1000.86 1000.98 1001.09 1001.17 1001.23 1001.28 1001.32 1001.34
Thickness
5800 5790 5786 5797 5807 5809 5810 5807 5806 5817 5830 5819 5808 5808 5814 5821 5821 5817 5814 5811 5808 5806 5808 5808 5805 5801 5796 5791 5787 5784 5781 5779 5776 5773 5770 5767 5765 5765 5765 5763 5761 5758 5756 5754
5787 5783 5802 5815 5817 5813 5807 5799 5803 5815 5827 5817 5805 5805 5814 5819 5818 5817 5813 5808 5806 5804 5802 5800 5799 5796 5791 5787 5784 5781 5778 5776 5774 5772 5770 5767 5765 5763 5762 5761 5759 5757 5754 5752
5779 5796 5811 5805 5802 5799 5800 5798 5800 5804 5812 5812 5801 5791 5801 5813 5819 5819 5816 5812 5809 5805 5798 5795 5793 5791 5788 5785 5782 5780 5776 5774 5772 5771 5768 5766 5763 5760 5758 5755 5754 5754 5752 5750
5789 5806 5805 5797 5795 5797 5787 5806 5807 5803 5795 5785 5792 5769 5789 5803 5806 5810 5811 5811 5808 5806 5800 5794 5791 5787 5785 5783 5781 5778 5774 5772 5770 5768 5765 5761 5757 5753 5753 5752 5751 5750 5749 5748
5785 5799 5797 5790 5796 5800 5797 5811 5807 5802 5790 5780 5786 5772 5780 5801 5796 5802 5808 5809 5808 5804 5799 5794 5790 5787 5785 5783 5779 5775 5771 5768 5767 5765 5763 5759 5756 5754 5753 5751 5748 5747 5746 5745
5790 5806 5805 5801 5806 5807 5807 5803 5799 5795 5783 5760 5773 5768 5772 5792 5800 5803 5806 5806 5805 5803 5798 5792 5789 5786 5782 5780 5776 5772 5767 5764 5763 5761 5759 5756 5753 5751 5748 5747 5744 5744 5743 5742
5771 5788 5802 5806 5792 5798 5795 5777 5759 5752 5749 5755 5784 5773 5778 5800 5811 5808 5803 5802 5803 5802 5796 5789 5784 5781 5778 5776 5772 5769 5763 5759 5759 5757 5755 5753 5750 5748 5745 5744 5742 5741 5739 5738
5754 5760 5788 5797 5789 5782 5784 5777 5751 5737 5742 5759 5777 5770 5786 5808 5811 5810 5806 5803 5800 5797 5793 5789 5783 5779 5776 5773 5770 5766 5760 5756 5755 5753 5751 5750 5747 5746 5744 5742 5741 5739 5738 5736
5756 5760 5791 5798 5799 5790 5776 5775 5782 5764 5759 5752 5764 5776 5782 5799 5798 5798 5796 5793 5792 5791 5790 5787 5783 5777 5774 5771 5767 5763 5758 5754 5752 5750 5748 5746 5744 5742 5741 5740 5739 5738 5736 5735
5764 5752 5777 5790 5790 5790 5787 5782 5769 5754 5736 5734 5753 5763 5768 5777 5782 5786 5786 5785 5786 5787 5784 5782 5779 5774 5769 5767 5764 5760 5755 5752 5750 5747 5745 5743 5741 5739 5738 5736 5734 5733 5733 5732
5764 5748 5758 5770 5766 5767 5772 5770 5767 5763 5760 5741 5735 5754 5787 5782 5784 5782 5781 5782 5782 5780 5778 5776 5772 5769 5765 5762 5758 5754 5751 5748 5746 5744 5742 5740 5738 5736 5734 5732 5731 5730 5729 5728
5757 5748 5740 5754 5776 5784 5776 5770 5765 5745 5745 5752 5745 5752 5790 5786 5783 5781 5777 5776 5776 5773 5773 5770 5767 5763 5757 5755 5752 5749 5746 5744 5742 5741 5738 5735 5734 5732 5730 5729 5728 5727 5725 5724
5744 5732 5719 5730 5748 5763 5761 5767 5767 5759 5749 5744 5738 5748 5781 5779 5773 5773 5770 5767 5766 5765 5764 5761 5758 5755 5752 5749 5746 5744 5742 5740 5739 5736 5733 5730 5728 5727 5725 5724 5723 5722 5721 5720
5739 5726 5718 5715 5728 5740 5742 5752 5759 5752 5740 5738 5743 5749 5761 5765 5762 5762 5760 5757 5756 5755 5753 5750 5746 5745 5744 5743 5741 5738 5737 5736 5734 5731 5728 5725 5724 5722 5721 5720 5718 5717 5716 5715
5731 5717 5723 5732 5742 5743 5742 5744 5749 5747 5746 5741 5746 5750 5751 5753 5754 5754 5752 5749 5749 5745 5743 5740 5735 5735 5735 5734 5734 5733 5731 5730 5729 5725 5723 5720 5719 5718 5716 5715 5713 5712 5711 5711
5720 5709 5713 5719 5734 5737 5735 5741 5743 5743 5745 5745 5745 5743 5753 5751 5749 5745 5743 5743 5738 5736 5735 5733 5730 5727 5726 5726 5726 5726 5725 5724 5722 5720 5718 5716 5714 5712 5710 5709 5708 5706 5705 5704
5708 5702 5698 5702 5722 5724 5717 5732 5735 5736 5740 5738 5732 5735 5741 5736 5735 5734 5734 5733 5729 5727 5726 5723 5721 5719 5718 5718 5719 5718 5718 5718 5716 5714 5712 5711 5709 5707 5705 5704 5702 5700 5699 5697
5698 5693 5693 5695 5700 5685 5717 5740 5738 5731 5730 5733 5731 5733 5733 5730 5729 5728 5728 5725 5720 5719 5716 5715 5713 5712 5712 5712 5712 5712 5712 5710 5708 5706 5705 5705 5704 5701 5700 5698 5695 5695 5693 5690
5703 5690 5684 5683 5682 5694 5716 5724 5724 5717 5713 5726 5724 5724 5723 5723 5719 5715 5717 5715 5712 5710 5708 5706 5706 5705 5704 5704 5704 5703 5702 5701 5700 5698 5697 5697 5697 5695 5693 5690 5688 5687 5685 5682
5699 5693 5679 5676 5671 5674 5697 5714 5721 5712 5697 5714 5715 5711 5709 5708 5696 5695 5703 5704 5702 5700 5699 5697 5697 5697 5695 5695 5696 5694 5693 5692 5691 5691 5691 5691 5691 5688 5686 5684 5682 5681 5679 5676
5676 5674 5669 5667 5666 5679 5697 5707 5709 5683 5682 5701 5705 5702 5701 5695 5691 5691 5695 5693 5692 5690 5690 5689 5688 5687 5686 5687 5686 5685 5684 5683 5684 5685 5685 5684 5683 5682 5680 5678 5676 5674 5672 5670
5667 5664 5664 5664 5658 5665 5690 5691 5682 5678 5691 5695 5694 5693 5691 5687 5686 5685 5684 5682 5681 5680 5680 5680 5678 5677 5678 5678 5677 5676 5675 5677 5678 5678 5677 5676 5676 5676 5674 5671 5669 5667 5664 5662
5666 5665 5664 5661 5659 5670 5680 5680 5682 5685 5683 5684 5685 5685 5682 5677 5676 5675 5672 5671 5670 5670 5671 5671 5670 5669 5669 5669 5669 5667 5668 5669 5670 5669 5667 5667 5668 5668 5666 5663 5661 5659 5657 5656
5662 5669 5663 5659 5662 5668 5673 5677 5677 5678 5676 5677 5677 5676 5673 5668 5667 5664 5663 5661 5661 5661 5661 5661 5661 5659 5659 5660 5660 5660 5661 5662 5661 5660 5659 5659 5659 5658 5657 5655 5654 5652 5650 5649
5650 5655 5651 5649 5656 5660 5664 5666 5667 5668 5669 5668 5667 5666 5663 5660 5657 5655 5653 5653 5653 5653 5653 5653 5652 5652 5651 5652 5652 5653 5654 5654 5652 5652 5652 5651 5651 5650 5648 5646 5644 5644 5641 5640
5645 5643 5640 5641 5649 5648 5650 5657 5659 5657 5656 5657 5656 5654 5654 5651 5649 5648 5646 5645 5645 5645 5646 5646 5646 5646 5645 5645 5645 5645 5646 5646 5645 5643 5643 5643 5643 5642 5641 5639 5635 5633 5632 5630